CAPE
993 1011 1040 1109 1057 815 710 572 336 186 227 274 342 425 619 1106 1306 1299 1258 1310 1402 1516 1458 982 849 848 650 584 695 768 830 903 926 1069 1249 1322 1283 1152 1120 1076 897 865 972
884 870 1075 1228 1100 808 755 706 534 322 307 331 366 472 589 553 616 773 988 1088 1096 1047 982 857 938 969 715 647 640 769 801 851 838 932 1104 1196 1137 1050 807 804 636 780 726
867 918 1019 1173 1150 982 841 834 776 581 482 442 410 447 659 860 885 826 852 901 988 1008 940 844 1114 1071 754 666 685 893 843 838 786 825 847 924 1048 1100 668 712 730 691 718
1067 1103 1089 1191 1211 1058 906 958 1004 877 663 585 526 578 694 831 984 1060 1143 1135 1049 979 950 1013 1296 951 722 722 770 980 919 776 450 437 532 707 965 1035 866 740 658 665 435
1347 1182 1105 1176 1320 1345 1188 1044 1119 1160 830 732 692 722 813 907 988 1155 1260 1203 1189 1256 1297 1314 1226 805 660 716 856 990 909 917 618 546 454 588 720 1084 871 698 609 570 436
1572 1274 1155 1141 1279 1290 1316 1336 1295 1344 1021 880 849 863 908 1020 1174 1274 1249 1252 1244 1366 1420 1235 996 802 630 684 815 897 825 894 443 202 346 631 816 983 871 647 547 493 393
1621 1371 1350 1195 1089 1246 1374 1515 1601 1559 1295 1036 1068 1047 1021 1071 1103 1186 1189 1254 1273 1381 1476 1106 820 742 653 652 710 783 758 833 781 144 0 566 770 999 810 587 483 337 155
1726 1575 1405 1332 1411 1412 1359 1524 1607 1672 1471 1171 1155 1218 1195 1160 1100 1119 1166 1252 1316 1401 1419 994 713 667 617 561 574 686 712 749 758 484 121 644 811 973 849 599 330 215 207
0 456 1042 1114 1187 1321 1652 1611 1664 1518 1462 1319 1213 1260 1319 1274 1198 1175 1197 1266 1311 1405 1373 1006 629 564 517 456 408 491 557 671 651 663 470 725 980 943 943 586 254 186 131
0 0 0 0 0 420 1137 1423 1650 1693 1506 1444 1422 1422 1415 1395 1292 1253 1261 1276 1273 1353 1314 1028 608 491 462 412 379 398 457 566 611 656 773 802 1023 1137 1113 601 401 262 91
0 0 0 0 0 0 3 747 1235 1264 1432 1651 1582 1575 1520 1444 1382 1316 1292 1246 1299 1316 1253 987 638 484 402 326 327 380 387 456 453 567 600 783 988 1221 1167 690 401 207 16
0 0 0 0 0 0 0 0 11 576 1010 1032 1479 1545 1633 1508 1419 1335 1252 1230 1323 1326 1212 988 706 499 389 239 258 349 245 321 421 530 482 659 871 1245 1186 644 333 131 0
0 0 0 0 0 0 0 0 0 0 16 747 1066 1204 1502 1533 1473 1450 1281 1282 1376 1352 1148 985 758 512 322 166 153 193 154 128 411 465 431 495 602 964 1297 739 233 31 0
0 0 0 0 0 0 0 0 0 0 0 0 520 1118 1207 1210 1427 1400 1277 1185 1211 1265 950 903 658 447 253 129 76 36 81 61 322 454 353 411 354 562 1025 899 394 67 4
0 0 0 0 0 0 0 0 0 0 0 0 0 576 1152 1199 1297 1346 1299 1154 1135 1147 914 723 635 405 133 74 70 15 9 13 104 300 294 292 256 500 847 1048 622 225 111
0 0 0 0 0 0 0 0 0 0 0 0 0 0 86 1044 1160 1047 1087 1130 1062 980 889 642 523 419 128 43 37 143 109 15 119 287 204 88 163 230 585 278 594 455 168
0 0 0 0 0 0 0 0 0 0 0 0 0 0 0 18 969 1104 1065 1010 1030 962 867 754 539 414 187 29 22 90 460 462 289 290 239 239 124 191 151 327 140 160 72
0 0 0 0 0 0 0 0 0 0 0 0 0 0 0 0 0 957 1066 927 1025 953 871 800 628 589 377 111 6 4 346 383 339 285 310 269 170 163 141 217 273 67 11
0 0 0 0 0 0 0 0 0 0 0 0 0 0 0 0 0 0 298 907 882 1033 978 941 822 702 494 257 164 18 191 391 413 281 325 282 200 130 115 53 76 36 20
0 0 0 0 0 0 0 0 0 0 0 0 0 0 0 0 0 0 0 253 923 1049 1072 1036 1000 817 696 456 405 172 213 385 386 311 326 290 211 192 110 49 54 101 89
0 0 0 0 0 0 0 1 1 0 1 1 1 1 0 0 0 0 0 0 589 709 828 1054 1011 849 738 550 499 431 288 251 346 180 261 257 208 180 86 108 107 66 49
0 0 0 0 0 0 0 0 0 1 1 1 0 0 0 0 0 3 3 0 105 407 512 799 793 841 705 489 572 488 491 508 423 298 53 184 231 202 147 139 124 104 61
0 0 0 0 0 0 1 0 0 1 2 1 0 0 0 0 0 0 0 0 0 87 134 681 810 838 819 514 624 519 254 232 382 314 356 207 169 229 250 183 149 140 84
0 0 0 0 0 2 1 1 2 2 3 2 4 0 2 0 0 0 0 0 0 1 132 289 531 625 749 657 532 555 238 78 98 66 184 368 328 251 227 194 197 141 88
0 0 0 0 0 2 2 1 3 3 2 3 4 3 2 1 1 0 0 0 0 0 21 11 34 518 521 614 626 658 377 127 63 1 0 147 228 294 267 190 142 152 116
0 0 0 0 1 2 2 2 2 2 2 1 3 2 1 2 0 1 0 2 0 0 0 19 264 164 599 658 634 665 623 440 303 185 113 40 36 136 281 307 210 163 124
CIN
-300 -349 -317 -279 -267 -303 -311 -334 -372 -399 -373 -373 -351 -290 -196 -76 -59 -61 -56 -38 -19 -2 -1 -27 -38 -36 -67 -74 -63 -58 -44 -42 -32 -16 -5 -1 -4 -14 -13 -11 -18 -14 -13
-289 -347 -310 -282 -276 -297 -296 -304 -327 -356 -354 -355 -346 -303 -238 -210 -151 -96 -68 -58 -53 -55 -49 -55 -40 -39 -66 -71 -63 -58 -54 -45 -38 -36 -17 -11 -15 -14 -19 -20 -19 -15 -11
-267 -310 -307 -273 -254 -265 -270 -269 -278 -305 -320 -326 -343 -317 -251 -168 -133 -120 -90 -79 -66 -62 -61 -66 -32 -32 -63 -69 -58 -42 -46 -46 -48 -39 -35 -30 -15 -9 -21 -17 -17 -12 -16
-275 -307 -304 -262 -228 -228 -241 -241 -245 -252 -281 -294 -304 -279 -250 -175 -121 -98 -70 -56 -54 -55 -59 -52 -28 -46 -73 -56 -58 -35 -36 -61 -81 -80 -72 -50 -20 -10 -18 -14 -18 -18 -39
-243 -281 -263 -242 -208 -187 -205 -219 -202 -199 -246 -255 -251 -243 -205 -141 -109 -85 -65 -57 -49 -38 -34 -32 -34 -67 -91 -67 -51 -36 -37 -44 -65 -69 -73 -58 -36 -8 -21 -24 -22 -25 -40
-165 -203 -209 -216 -196 -182 -165 -165 -179 -166 -203 -216 -210 -190 -151 -123 -101 -81 -76 -63 -55 -40 -35 -44 -55 -63 -89 -80 -56 -45 -44 -39 -77 -171 -94 -54 -32 -21 -27 -38 -41 -38 -50
-113 -150 -123 -120 -131 -120 -116 -117 -120 -124 -143 -168 -152 -136 -125 -122 -115 -97 -86 -72 -64 -47 -35 -56 -72 -70 -76 -78 -68 -58 -43 -29 -43 -113 -0 -67 -33 -16 -34 -44 -46 -52 -67
-62 -121 -142 -104 -70 -76 -92 -97 -107 -101 -111 -135 -121 -111 -112 -111 -114 -101 -94 -77 -64 -51 -41 -68 -94 -86 -79 -87 -92 -69 -50 -35 -33 -74 -181 -55 -31 -15 -28 -35 -41 -54 -41
-0 -242 -159 -99 -66 -61 -22 -53 -91 -122 -127 -130 -137 -115 -100 -89 -91 -87 -86 -71 -61 -50 -46 -70 -103 -99 -93 -104 -117 -86 -66 -42 -47 -50 -71 -40 -15 -9 -12 -32 -42 -46 -42
-0 -0 -0 -0 -0 -263 -83 -39 -28 -66 -113 -121 -101 -84 -73 -67 -70 -69 -67 -66 -62 -52 -54 -66 -99 -107 -106 -106 -114 -112 -81 -70 -61 -51 -42 -40 -12 -1 -3 -29 -39 -45 -58
-0 -0 -0 -0 -0 -0 -19 -128 -32 -25 -51 -59 -82 -70 -60 -63 -61 -59 -64 -70 -61 -50 -54 -74 -93 -107 -113 -126 -138 -118 -109 -92 -72 -71 -59 -38 -19 -0 -0 -20 -42 -56 -45
-0 -0 -0 -0 -0 -0 -0 -0 -92 -133 -17 -47 -52 -60 -39 -59 -72 -70 -71 -65 -56 -45 -47 -62 -84 -100 -109 -145 -152 -121 -146 -126 -88 -80 -66 -48 -30 -0 -0 -19 -41 -65 -0
-0 -0 -0 -0 -0 -0 -0 -0 -0 -0 -40 -48 -18 -39 -42 -43 -50 -42 -50 -34 -29 -27 -38 -51 -75 -94 -125 -166 -188 -177 -182 -173 -99 -91 -81 -66 -45 -5 -0 -12 -51 -119 -0
-0 -0 -0 -0 -0 -0 -0 -0 -0 -0 -0 -0 -95 -3 -21 -53 -45 -36 -44 -48 -38 -31 -61 -62 -87 -111 -130 -164 -197 -251 -230 -221 -96 -83 -78 -75 -60 -26 -2 -5 -32 -71 -58
-0 -0 -0 -0 -0 -0 -0 -0 -0 -0 -0 -0 -0 -72 -0 -7 -33 -48 -47 -54 -51 -46 -68 -87 -85 -115 -164 -205 -176 -256 -272 -262 -146 -91 -86 -78 -65 -40 -15 -0 -11 -36 -42
-0 -0 -0 -0 -0 -0 -0 -0 -0 -0 -0 -0 -0 -0 -92 -0 -9 -51 -62 -61 -59 -57 -68 -107 -115 -115 -161 -229 -212 -118 -170 -244 -152 -85 -107 -112 -81 -60 -23 -24 -17 -14 -26
-0 -0 -0 -0 -0 -0 -0 -0 -0 -0 -0 -0 -0 -0 -0 -157 -0 -10 -29 -63 -75 -66 -68 -76 -105 -92 -135 -236 -251 -145 -67 -61 -84 -71 -90 -95 -100 -86 -62 -39 -35 -40 -39
-0 -0 -0 -0 -0 -0 -0 -0 -0 -0 -0 -0 -0 -0 -0 -0 -0 -3 -2 -26 -36 -46 -66 -51 -81 -64 -89 -140 -230 -220 -63 -68 -67 -77 -76 -98 -120 -102 -120 -95 -53 -66 -111
-0 -0 -0 -0 -0 -0 -0 -0 -0 -0 -0 -0 -0 -0 -0 -0 -0 -0 -24 -2 -18 -24 -30 -41 -43 -51 -67 -101 -115 -183 -67 -51 -60 -90 -88 -103 -129 -117 -107 -136 -112 -108 -93
-0 -0 -0 -0 -0 -0 -0 -0 -0 -0 -0 -0 -0 -0 -0 -0 -0 -0 -0 -26 -5 -2 -9 -22 -21 -34 -37 -72 -43 -102 -51 -53 -68 -95 -83 -122 -133 -116 -100 -99 -130 -109 -104
-0 -0 -0 -0 -0 -0 -0 -0 -0 -0 -0 -0 -0 -0 -0 -0 -0 -0 -0 -0 -4 -26 -2 -9 -18 -16 -23 -40 -24 -26 -45 -53 -74 -137 -98 -116 -144 -137 -155 -126 -105 -99 -128
-0 -0 -0 -0 -0 -0 -0 -0 -0 -0 -0 -0 -0 -0 -0 -0 -0 -1 -1 -0 -4 -2 -0 -6 -31 -3 -25 -51 -10 -12 -4 -8 -53 -130 -206 -153 -143 -150 -152 -147 -156 -137 -118
-0 -0 -0 -0 -0 -0 -0 -0 -0 -0 -0 -0 -0 -0 -0 -0 -0 -0 -0 -0 -0 -0 -6 -5 -15 -12 -11 -40 -28 -6 -35 -40 -73 -129 -123 -163 -163 -167 -162 -160 -169 -177 -177
-0 -0 -0 -0 -0 -0 -0 -0 -0 -0 -0 -0 -0 -0 -0 -0 -0 -0 -0 -0 -0 -0 -17 -15 -4 -15 -18 -16 -35 -25 -63 -122 -83 -177 -191 -148 -143 -168 -195 -186 -178 -183 -200
-0 -0 -0 -0 -0 -0 -0 -0 -0 -0 -0 -0 -0 -0 -0 -0 -0 -0 -0 -0 -0 -0 -65 -96 -97 -1 -21 -29 -34 -6 -47 -133 -175 -10 -0 -203 -208 -205 -196 -201 -205 -195 -202
-0 -0 -0 -0 -0 -0 -0 -0 -0 -0 -0 -0 -0 -0 -1 -0 -0 -0 -0 -15 -0 -0 -0 -4 -1 -9 -11 -17 -34 -19 -19 -36 -124 -147 -181 -236 -213 -222 -182 -170 -186 -203 -212
Wind_Speed
15 9 9 9 10 11 12 12 13 14 15 16 17 18 17 17 15 14 13 12 12 12 13 13 14 14 15 15 14 15 15 15 16 16 16 17 17 16 16 15 15 15 16
11 9 8 9 9 9 10 10 11 12 13 14 15 16 16 16 15 14 13 12 11 11 11 12 12 13 14 14 14 15 14 15 15 15 16 17 17 15 14 14 16 16 17
12 10 9 10 10 10 9 9 9 9 10 11 12 13 14 14 14 13 13 11 11 10 10 10 11 12 13 13 14 14 14 15 15 15 14 14 14 16 14 15 16 16 15
13 12 12 12 12 10 9 8 8 8 7 8 9 11 12 12 13 13 12 11 10 9 9 9 10 10 11 12 13 13 13 14 14 14 14 14 14 14 14 14 14 15 15
15 13 12 12 14 13 11 9 8 8 6 6 7 8 9 10 10 10 10 10 9 9 8 8 9 9 10 11 12 12 13 13 13 14 13 13 13 13 13 13 14 14 14
16 15 14 14 15 14 13 11 9 8 7 6 6 6 6 7 8 9 9 8 8 8 8 8 8 8 8 9 10 11 11 11 12 13 13 12 12 12 12 12 13 13 13
18 17 18 18 17 17 15 13 12 11 10 9 9 7 5 5 6 6 7 7 7 7 7 7 8 8 7 8 8 9 10 10 11 12 12 12 12 12 11 11 12 13 13
22 22 23 24 25 22 17 14 13 13 12 12 11 10 7 4 4 4 5 5 5 6 6 6 6 6 7 7 7 7 8 9 9 11 12 12 12 11 11 11 11 12 12
26 25 26 27 27 26 25 20 15 11 12 11 10 10 9 6 4 3 4 4 4 4 5 5 5 5 5 6 7 7 6 7 8 9 11 11 11 11 12 12 12 11 12
27 27 27 28 29 29 28 26 23 17 14 14 15 15 13 10 8 6 6 5 4 4 3 3 3 4 4 5 6 6 6 7 7 7 8 10 12 12 12 12 12 12 12
29 30 30 30 30 30 28 29 29 27 22 22 18 19 17 15 13 10 7 6 5 4 3 2 2 2 3 3 3 4 4 5 6 6 6 9 10 11 11 11 12 12 11
32 32 32 33 32 31 30 29 29 31 30 25 23 22 21 19 14 12 9 7 7 6 5 4 2 1 1 2 2 3 3 3 5 5 5 8 8 9 10 10 10 12 12
33 34 35 35 34 34 33 32 31 30 31 32 28 23 22 23 21 17 15 14 13 11 10 9 7 5 1 1 1 2 2 2 3 4 4 5 7 7 6 8 9 10 10
33 35 36 36 36 36 35 33 33 33 33 32 36 30 24 23 24 23 20 18 18 17 14 12 11 9 7 4 2 2 2 3 2 2 4 8 7 6 4 6 7 8 9
34 36 37 38 37 38 38 36 36 36 35 35 35 36 31 27 27 25 25 23 22 20 17 15 15 12 11 8 5 4 2 5 3 3 5 10 9 7 5 5 7 7 9
37 38 39 39 39 40 40 41 40 39 38 37 37 38 38 34 32 31 27 27 25 23 22 19 16 15 15 14 9 7 4 3 2 2 7 9 11 9 7 7 7 8 9
39 40 41 43 43 43 44 44 43 42 42 41 39 38 42 40 38 32 31 31 28 26 26 25 21 20 19 19 16 12 8 5 4 4 5 6 10 11 9 7 7 9 10
41 42 44 45 45 46 46 45 44 44 44 44 42 42 40 43 41 41 37 35 33 31 28 30 26 24 24 22 21 21 17 12 7 5 5 5 8 9 10 10 8 9 9
42 45 47 49 51 49 46 45 45 44 44 46 45 44 44 42 42 43 44 38 33 34 33 32 31 27 26 25 24 23 25 20 12 8 6 5 7 8 6 11 11 10 10
43 45 48 49 51 51 49 47 45 45 45 44 46 48 47 45 44 43 45 44 36 35 37 35 34 31 29 27 24 25 26 23 15 11 8 7 7 8 8 8 9 9 9
45 49 50 52 52 52 51 51 50 50 49 49 47 47 51 50 47 45 45 48 46 38 44 40 37 37 33 27 25 30 29 31 26 16 13 9 8 8 7 7 7 6 7
49 51 52 53 53 51 49 49 48 50 50 51 50 49 50 50 48 46 44 47 49 41 42 44 37 38 36 28 27 26 32 34 37 20 16 13 10 8 8 9 8 7 6
49 51 52 52 51 49 49 49 48 48 47 46 44 45 48 49 49 50 50 49 47 40 46 46 42 39 37 33 30 26 28 29 29 26 23 16 14 12 12 10 10 9 9
50 50 50 50 50 49 50 49 49 47 46 44 46 44 47 48 52 51 51 48 46 43 42 37 42 42 37 38 34 34 29 23 25 27 28 23 18 15 14 14 12 10 9
47 48 47 49 49 48 48 46 45 44 44 45 44 45 47 47 46 50 49 50 47 45 40 44 52 45 41 36 34 34 35 30 26 26 25 23 24 22 19 15 14 12 12
44 46 48 48 48 47 46 45 43 43 45 43 42 43 43 44 43 45 48 45 42 41 36 51 53 50 46 38 34 35 35 34 32 31 30 26 25 25 21 20 17 16 15
Wind_Direction
14 63 63 60 47 41 35 36 46 53 55 55 57 60 62 66 67 65 66 67 67 67 69 70 66 63 57 49 54 55 55 55 57 61 63 68 68 59 58 58 64 64 67
25 38 32 26 27 30 30 27 34 49 55 58 59 62 67 68 68 65 62 64 65 67 67 62 60 60 60 56 57 55 58 56 60 64 67 76 81 59 55 61 72 71 73
6 8 4 4 4 358 3 9 19 34 49 55 57 58 67 72 73 68 65 59 58 59 61 56 54 56 59 64 61 56 60 63 62 63 60 60 56 70 54 67 72 74 72
1 356 352 347 344 344 342 346 355 12 33 46 50 56 61 69 74 73 67 59 53 51 50 43 46 51 55 62 63 59 63 71 69 63 66 69 72 69 66 65 69 71 75
359 1 355 349 340 335 331 331 333 344 0 18 33 46 53 61 65 66 64 57 53 50 42 35 36 44 49 55 62 65 74 74 73 71 69 68 60 70 71 68 71 75 77
4 5 357 346 336 329 326 321 320 325 334 348 357 18 39 52 55 63 63 51 45 41 38 27 24 27 31 40 52 65 74 74 74 76 74 79 72 76 74 74 80 84 82
360 358 357 352 341 331 321 317 313 313 315 320 324 336 2 30 47 59 56 52 49 45 39 29 19 17 20 24 39 53 70 77 83 84 93 91 87 84 79 79 84 88 90
342 338 335 329 323 328 325 316 310 305 305 306 309 313 326 351 21 40 44 47 49 50 45 38 30 25 14 7 15 34 57 71 79 106 96 99 100 93 88 90 93 89 91
346 334 329 325 322 320 315 315 309 301 298 298 298 301 306 313 329 344 355 11 28 46 50 44 38 32 19 1 1 9 32 35 61 89 104 105 99 102 103 102 101 91 90
347 343 338 335 330 318 315 311 304 299 292 290 292 295 297 299 301 306 313 320 333 345 15 29 40 43 23 7 356 12 26 7 36 64 84 105 112 111 110 107 104 96 96
340 339 338 334 332 328 325 314 303 296 293 291 289 288 289 291 291 293 292 293 298 305 320 348 358 7 15 33 27 34 36 18 35 38 75 108 111 113 111 110 108 110 104
329 329 331 329 328 327 324 322 318 298 294 292 289 287 286 286 283 280 278 275 277 280 288 299 308 325 8 0 46 57 26 42 24 60 75 106 108 113 114 112 111 115 115
329 328 326 325 326 324 322 320 317 315 301 290 290 288 284 283 281 279 280 280 280 277 284 287 291 295 260 290 124 102 76 72 42 66 85 97 112 110 104 111 116 118 118
328 326 327 325 322 321 320 317 314 309 305 298 287 286 282 279 278 275 275 274 273 275 275 276 280 283 284 276 235 172 133 135 82 72 117 136 131 114 85 111 119 119 124
331 330 330 328 326 320 317 315 312 308 305 299 294 286 281 278 275 273 271 271 269 270 268 269 272 273 276 273 264 251 215 157 151 113 148 155 152 139 116 119 129 133 134
327 327 328 328 326 322 316 311 307 304 301 299 294 287 287 277 273 270 267 266 266 266 266 265 260 263 267 270 260 262 238 195 178 165 151 155 164 161 146 141 140 146 149
328 326 325 324 324 321 316 311 305 301 298 295 294 291 282 284 273 269 266 264 262 262 265 265 262 263 264 267 265 259 258 239 221 186 163 159 165 166 158 148 143 154 161
327 325 326 327 326 323 318 314 307 300 295 292 289 288 288 279 282 272 266 264 262 260 261 263 261 260 261 261 263 264 264 266 251 213 200 183 173 171 171 169 164 162 158
327 326 324 324 322 322 319 314 308 304 297 290 287 285 282 283 279 277 273 263 260 257 257 257 259 257 258 260 262 263 263 265 259 249 217 206 186 180 179 177 176 173 174
330 329 328 326 325 322 317 314 309 303 300 294 288 282 279 278 279 278 274 271 259 255 254 253 254 256 257 257 258 261 260 264 265 256 234 217 201 197 189 185 182 181 184
331 330 328 327 327 322 317 312 308 302 299 294 290 284 278 275 275 275 273 272 263 246 249 248 250 252 254 254 256 258 261 261 265 265 264 240 214 204 207 206 202 205 199
330 329 329 327 325 323 320 314 308 302 298 295 291 284 279 275 272 272 272 273 279 245 250 246 244 248 251 247 251 258 257 258 258 266 262 260 245 236 230 220 221 223 228
331 331 330 328 328 326 320 314 310 304 301 299 297 290 281 276 272 270 269 268 270 257 254 246 245 244 247 248 247 254 258 262 264 266 262 259 258 260 266 255 234 229 227
331 332 334 333 326 322 320 319 311 303 300 301 299 297 287 281 273 269 266 265 263 266 257 251 246 246 245 246 247 248 258 269 267 271 268 267 264 257 256 267 262 241 242
336 338 338 330 328 328 324 321 314 309 305 304 301 296 291 286 280 269 264 261 261 262 266 254 255 245 240 242 243 247 251 259 267 273 274 272 271 271 271 262 265 261 263
342 341 335 331 333 332 329 323 320 316 311 307 305 301 295 289 285 274 263 258 255 255 259 260 255 246 241 238 241 245 247 250 257 265 272 276 276 278 275 275 272 273 276